map of ZSE home
ZSE - Airport
Location
City:  St-Pierre, Réunion
Near (Alt.):St-Pierre de la Réunion
Name:Pierrefonds
ICAO:FMEP
IATA:ZSE

Details
Type:Airport (Aerodrome, Airfield)
Latitude:21°19'18"S (-21.321666)
Longitude:55°25'32"E (55.425556)
Elevation:59 ft (18 m)
Variation:19.55°W (WMM2015 magnetic declination)
0.03° annual change
Runways:1
Longest:6070 × 98 ft (1850 × 30 m), paved

Time
Time Zone:UTC+4
Local Time:

Weather
METAR:FMEP 241000Z AUTO 14018KT CAVOK 27/15 Q1017 TEMPO 12008KT

Related Locations
Nearby:
Farthest:MMCD: 11691 mi / 18815 km
Cedros [Isla de Cedros Airport], Isla de Cedros, BCN, MX

Find:

   beyond  
but within

Other Information
Maps:
NOTAMs:
Links:
Sources:

  
flag of Réunion   

Sectional Chart

Flight Planning
at skyvector.com

Satellite Image

Google Maps Satellite view

 

Copyright © 2004-2017 Karl L. Swartz. All rights reserved.
The Great Circle Mapper name and logo are trademarks of the Great Circle Mapper.
All other trademarks mentioned herein belong to their respective owners.
Please see credits for attibutions and further copyright information.

  Follow gcmap on Facebook Follow gcmap on Twitter Follow gcmap on Google+ GCmap on LinkedIn

hCard Microformat

Geo Microformat